Location: Aigremont
(47.7188°N, 3.8925°E)
Time: 16:49:03
(UTC+00:00)

NOSS 3-1 (A) - Pass Details

Date: 18 February 2020
Orbit: 761 x 1452 km, 63.4° (Epoch: 26 March)

Event Time Altitude Azimuth Distance (km) Brightness Sun altitude
Exits shadow 04:44:07 30° 289° (WNW) 2,088 4.7 -21.2°
Maximum altitude 04:47:23 44° 242° (WSW) 1,757 4.4 -20.6°
Drops below altitude 10° 04:55:24 10° 174° (S) 3,505 6.4 -19.3°
Sets 04:58:35 0° 169° (SSE) 4,516 7.1 -18.8°
